Location: Andrest
(43.3200°N, 0.0641°E)
Time: 21:15:56
(UTC+00:00)

Cosmos 1151 Rocket - Pass Details

Date: 01 December 2020
Orbit: 593 x 614 km, 82.5° (Epoch: 21 January)

Event Time Altitude Azimuth Distance (km) Brightness Sun altitude
Rises 17:05:01 0° 176° (S) 2,831 6.7 -7.3°
Reaches altitude 10° 17:07:15 10° 171° (S) 1,931 5.8 -7.7°
Maximum altitude 17:11:24 55° 94° (E) 723 3.1 -8.4°
Drops below altitude 10° 17:15:35 10° 17° (NNE) 1,938 5.2 -9.1°
Sets 17:17:50 0° 13° (NNE) 2,843 6.1 -9.5°
